"Pseudo-MPEC" for N00hurv
Created 2021 Feb 6 4:07:22 UT using Find_Orb
Click here for an explanation of pseudo-MPECs
Astrometry: N00hurv C2020 12 26`_8!jTU_N^?#omfq(oJjx%XP[0u12dsJltn!O-)gL,6?rbHgfl?E
F51 N00hurv C2020 12 26Ko'[k8HUlAY9;'nD4we:*VZV\x^N=)S30i$73I2GbM(0Kq-j1kFk
F51 N00hurv C2020 12 26H'V=,cPpR.MCvvUC8\KHav/R.!xy#=[#s7tYTK*a3W*/-:,Ev2G^
F51 N00hurv KC2020 12 26.0jehph_QEYB@8vEB72SvB`6N_f``$oKne67[YvfXU.xH_wDv0RL
F51 N00hurv S2021 01 12,lb4R)ul-D=cT9ygieEyNx!3uEc_Q6kDRP[UBiS:EH8;5'[Z/X'v
C51 N00hurv s2021 01 12.'_GXOm(sRc(O,5CQ+ki!K\:QEs3A[:(L0u)8H5!*db?-9%R]X.s
C51 N00hurv S2021 01 129aFL([@bcmr9vd;efFP(?7ADj$$f@O'O,c0MNtxgJc(5)(?1H1,F
C51 N00hurv s2021 01 12UeKWQkaWM6j!kpOeIpi2R$o5DZ]Uf]0Q.A)T(:[s2Kt#B#BkM1W%
C51 N00hurv S2021 01 126n4`QCL5-XwN;Q1/f^B82E45BYSjuCpj1VuT\0a:bjUm!?Z9aLK`
C51 N00hurv s2021 01 12`:(sV6cQYYAEi=yK';@C+O7`nKyUwJ7dx0@4sKH,GmOdFTEatCl$
C51 N00hurv S2021 01 12ZRr+Q(\Uxs?P]9e0eg2ZEPyOBNr4R,A$kL`M(^!5];TmZAclU.v5
C51 N00hurv s2021 01 12.KW\xF4*glvmSIuk$QZal4/L/rrd[nis1%qWmVx_RF8UA^YLuS*D
C51 N00hurv S2021 01 12V'7d[8F_c$R?V8K*'xB:Ja5Cnsg0P*kgHH`M-JQ:ia,od6vbYjft
C51 N00hurv s2021 01 12/hywR)[Dq)JsDwZn(t7j`.q\J*M6$-F`Qxj2B;oGh9xHa'CSKI93
C51 N00hurv S2021 01 12@P]JWMNdMt$$Mnjoc`pQSooPw!FohAyKkVRttZHy^uG)k1C;P0py
C51 N00hurv s2021 01 12`m!;nK)5J.Z[aTUA#.YxVCA__76o.50Uk%#pc8tqsU2'e-*sA])]
C51 N00hurv C2021 01 13$Ce35$yYm$7cg)^9m%^23h,TKik,nhK0!:h$
Astrometry9GK8i_
F52 N00hurv C2021 01 13B'xxt$\-k%my*6j6*3n4V\lp
redacted;^rhvaMrhq^S#OXJN=ar
F52 N00hurv C2021 01 13SE+ontLP@vh8d?y77A=.8!o*N@2k[_yZDHNNY_J!Q4@Q2LwtdS64
F52 N00hurv KC2021 01 14]e.J0C//#SX,L,ee1@Eam%st#m8V^Lm#Z=3#Lw'Z/g,o,qL33[+`
H21 N00hurv KC2021 01 14.40925213 46 29.73 +10 14 33.8 ~1EAM 20.36GVNEOCPI52 N00hurv KC2021 01 14U..mF@2ITO6XVg96PBF2m^,L;lfpTNsN^_w8hhJD/cZ`iV,UIfn*
H21 N00hurv KC2021 01 14.41232713 46 29.72 +10 14 43.6 ~1EAM 20.90GVNEOCPI52 N00hurv KC2021 01 14.41539713 46 29.77 +10 14 53.4 ~1EAM 20.45GVNEOCPI52 N00hurv KC2021 01 14.41846813 46 29.74 +10 15 03.8 ~1EAM 20.91GVNEOCPI52 N00hurv KC2021 01 14M@E?`pM54=r_;dN]5LlRa,BqlQAYE%,?J%@Ro.-2F'Et4!efbqbY
H21 N00hurv |C2021 01 15d:TC_3)%8b_2:TA!@!HFv@Zw+G9#/MA#'coGB-/[?#i`%/b'1.#,
H06 N00hurv |C2021 01 15CU7Dnn-A51#SNrTJY=+xAt_]![Ic^U,9F*.;8)*I`8wXFG7d,j_)
H06 N00hurv |C2021 01 159=*tfGXATLB8Z]P=Ay$YP
click6Q(D]r)=!B[_pG,NC:eS4),C]0
H06 N00hurv C2021 01 15W3F7?N[@U:U:0V!8S;9rH't,3riCOVD@OL!RM?L\3[wC7R[kGNcp
F51 N00hurv C2021 01 15V8VC0yA9U?Y+k47rS=Ufx,ci^DZ+sxU)610G9@fr%2,*93_Y1kBO
F51 N00hurv C2021 01 15@55m3jP#VW#fX,Eh1WN';A:!%FvZPpoed\/n9eK,*2l)TX`(_UIT
F51 N00hurv KC2021 01 16V#3Wym-IL3R5(kU-aa7sStM14/KjXY5lWh:80DK=4-bi;JP,w]'%
L01 N00hurv KC2021 01 16I;4t_G-`\y=Km6cX4huHP77EaAQ_Y2((RVgSc'jy;d5XBIqrP.cu
L01 N00hurv KC2021 01 16J_'cm'FOYqgexW[wLEf*g6^8b5G%dKdE4(m;NBN*9;IlL+ixPV\F
L01 N00hurv KC2021 01 16A0b01gt\RtpZg1cc:mW/=I\HlZR=JH^[dnlRBO^pyr]e[!%)X4'p
L01 N00hurv KC2021 01 16sQTvH%x,`=T,ov[-m5%*;+%DcmDDdroTH=Y#s=Wf-;sTPy9P:D/8
204 N00hurv KC2021 01 16bW6`u6XjjZa$[QxOWe\M8kW7*b+(KwD(3_##=mnx.L3#1U5Pli]s
204 N00hurv 1C2021 01 17.08722 13 46 26.49 +12 51 53.9 ~1H87 21.5 VVNEOCP033 N00hurv 1C2021 01 17.08930 13 46 26.47 +12 52 02.3 ~1H87 21.4 VVNEOCP033 N00hurv 1C2021 01 17.09139 13 46 26.45 +12 52 10.6 ~1H87 21.3 VVNEOCP033 N00hurv KC2021 01 18.46021013 46 16.47 +14 23 18.6 ~1IBM 20.85GVNEOCPI52 N00hurv KC2021 01 18.46147113 46 16.44 +14 23 23.2 ~1IBM 20.35GVNEOCPI52 N00hurv KC2021 01 18.46273213 46 16.42 +14 23 28.4 ~1IBM 20.54GVNEOCPI52 N00hurv KC2021 01 18.46399113 46 16.44 +14 23 33.7 ~1IBM 20.34GVNEOCPI52 N00hurv KC2021 01 22.21356 13 45 11.20 +19 18 00.3 ~1M8M 20.9 GVNEOCP970 N00hurv KC2021 01 22.22869 13 45 10.78 +19 19 20.5 ~1M8M 20.0 GVNEOCP970 N00hurv mC2021 01 22.43476513 45 05.58 +19 37 45.4 ~1MAq 20.76GVNEOCPI52 N00hurv mC2021 01 22.43553313 45 05.59 +19 37 49.3 ~1MAq 19.92GVNEOCPI52 N00hurv mC2021 01 22.43630113 45 05.55 +19 37 53.1 ~1MAq 20.43GVNEOCPI52 N00hurv mC2021 01 22.43706813 45 05.54 +19 37 57.5 ~1MAq 20.08GVNEOCPI52 N00hurv KC2021 01 31.08601 13 35 55.11 +37 02 43.8 ~1V8q 19.2 GVNEOCP970 N00hurv KC2021 01 31.09103 13 35 54.49 +37 03 31.5 ~1V8q 19.0 GVNEOCP970 N00hurv KC2021 01 31.37008513 35 20.67 +37 47 41.0 ~1V9M 19.03GVNEOCPI52 N00hurv KC2021 01 31.37107313 35 20.52 +37 47 50.4 ~1V9M 19.04GVNEOCPI52 N00hurv KC2021 01 31.37206313 35 20.42 +37 47 59.8 ~1V9M 19.13GVNEOCPI52 N00hurv KC2021 01 31.37305113 35 20.34 +37 48 09.9 ~1V9M 18.87GVNEOCPI52 N00hurv KC2021 02 01ZA[@#-=H5+-9.$`VVI(iO`U+u+w7N4d/UFOX-FZv+Ai:
hereF*JV
B49 N00hurv KC2021 02 01SSF\mUAh`rY
for5,Cx;CMNPM.'Y*pMPw`-*`Dw;e?8xkDvi:sph$
B49 N00hurv KC2021 02 02CP+VZ!]dV[K=e1a=M'\)?5tc1cW^3EbVvmgVIJAY+FvKW8B^?$A^
204 N00hurv KC2021 02 029;!
explanation$XY=kX%TMiePm`/S,+X=w$Cr9VPq5m=GMsbgP/
204 N00hurv KC2021 02 02M9b3x@Pv@R8yPmKiIU:8#1_P*;*F\4VcMvK9MG3Y:2/-7R0mmpX;
204 N00hurv KC2021 02 03c1*/m?Wk8-QZd:XQ#?hVO5#++[+x1ib%-'6x?CoJXgiLEtOd_mRR
H36 N00hurv KC2021 02 037RRwPdf8CttYL9uZb-`-'6KCOrOl$gDWdNuPAJ;wQTSLrh5YNv`^
H36 N00hurv KC2021 02 03nt3:y80f+oa#sJ1-Q]u@=$WBojm)*F]BVc;KJrDMLI8YTu/t836J
H36 N00hurv KC2021 02 03//?H^`[2D'gHyeOKhg*BcmpUZa%jpEDLG\Na=`#;gDdfdm7R[uOx
H36 N00hurv KC2021 02 03CES#,3GV2E(Y(Vuypx;]wY#aLnmajB_gBmj(8_87gK?xF?ny4,Pm
H36 N00hurv KC2021 02 03.97539 13 24 54.09 +48 19 35.7 ~2407 20.8 GVNEOCP970 N00hurv KC2021 02 03.98167 13 24 52.53 +48 20 47.8 ~2407 18.5 GVNEOCP970 N00hurv KC2021 02 04.04716613 24 36.84 +48 33 19.1 ~242b 18.9 GVNEOCPJ95 N00hurv KC2021 02 04.05872413 24 33.97 +48 35 31.8 ~242b 19.2 GVNEOCPJ95 N00hurv KC2021 02 04.07003213 24 31.21 +48 37 42.1 ~242b 19.3 GVNEOCPJ95 N00hurv KC2021 02 04.08119713 24 28.46 +48 39 50.1 ~242b 19.3 GVNEOCPJ95 N00hurv 1C2021 02 04.78705 13 21 25.70 +50 56 22.2 ~24JM 20.2 VVNEOCP033 N00hurv 1C2021 02 04.78757 13 21 25.55 +50 56 28.4 ~24JM 19.9 VVNEOCP033 N00hurv 1C2021 02 04.93353 13 20 44.58 +51 25 15.5 ~24Mq 19.6 VVNEOCP033 N00hurv 1C2021 02 04.93411 13 20 44.40 +51 25 22.4 ~24Mq 19.9 VVNEOCP033 N00hurv 1C2021 02 04.93468 13 20 44.23 +51 25 29.2 ~24Mq 19.7 VVNEOCP033 N00hurv 1C2021 02 05.15047 13 19 40.14 +52 08 14.7 ~258b 19.9 VVNEOCP033 N00hurv 1C2021 02 05.15105 13 19 39.97 +52 08 21.5 ~258b 19.8 VVNEOCP033 N00hurv 1C2021 02 05.15162 13 19 39.79 +52 08 28.3 ~258b 20.0 VVNEOCP033 N00hurv C2021 02 05.61541313 17 14.11 +53 41 14.2 ~25I7 19.23oVNEOCPT08 N00hurv C2021 02 05.62006613 17 12.64 +53 42 10.2 ~25I7 19.02oVNEOCPT08 N00hurv C2021 02 05.62468613 17 11.09 +53 43 06.8 ~25I7 18.97oVNEOCPT08 N00hurv C2021 02 05.63535913 17 07.38 +53 45 15.0 ~25I7 18.34oVNEOCPT08 N00hurv C2021 02 05.63812513 17 06.46 +53 45 49.4 ~25I7 19.23oVNEOCPT08 Station data: (033) Karl Schwarzschild Observatory, Tautenburg (N50.980140 E11.711240) Germany. 1.3-m Schmidt. (204) Schiaparelli Observatory (N45.867933 E8.770800) Italy. Observer L. Buzzi. 0.60-m f/4.64 Newtonian + CCD. (970) Chelmsford (N51.744716 E0.495400) UK. Observer N. James. 0.28-m f/10 Schmidt-Cassegrain + CCD. (B49) Paus Observatory, Sabadell (N41.551035 E2.112500) Spain. (C51) WISE. Measurers A. Mainzer, E. Wright, J. Bauer, T. Grav, J. Dailey, J. Masiero, R. Cutri, R. McMillan, R. Walker. (F51) Pan-STARRS 1, Haleakala (N20.707235 W156.255910) US/Hawaii. Observers N. Primak, A. Schultz, S. Watters, J. Thiel, T. Goggia. Measurer PS1 Science Consortium. 1.8-m Ritchey-Chrétien + CCD. (F52) Pan-STARRS 2, Haleakala (N20.707384 W156.255910) US/Hawaii. 1.8-m Ritchey-Chrétien + CCD. (H06) RAS Observatory, Mayhill (N32.903325 W105.528700) US/New Mexico. Observers E. Guido, G. Sostero, V. Gonano, L. Donato. (H21) Astronomical Research Observatory, Westfield (N39.483057 W87.968270) US/Illinois. 0.76-m f/3.0 astrograph + CCD. (H36) Sandlot Observatory, Scranton (N38.797693 W95.706400) US/Kansas. Observer G. Hug. 0.56-m reflector + CCD. (I52) Steward Observatory, Mt. Lemmon Station (N32.442547 W110.788920) US/Arizona. Observers T. A. Pruyne, B. M. Africano, E. J. Christensen, G. A. Farneth, D. C. Fuls, A. R. Gibbs, A. D. Grauer, H. Gröller, J. A. Johnson, R. A. Kowalski, S. M. Larson, G. J. Leonard, D. Rankin, R. L. Seaman, F. C. Shelly. 1.0-m reflector + CCD. (J95) Great Shefford (N51.474969 W1.447003) UK. Observer P. Birtwhistle. 0.40-m f/6.0 Schmidt-Cassegrain + CCD. (L01) Višnjan Observatory, Tičan (N45.290900 E13.749300) Croatia. Observers K. Korlević, E. Pettarin. Measurer E. Pettarin. 1.0-m f/2.9 reflector + CCD. (T08) ATLAS-MLO, Mauna Loa (N19.536152 W155.576050) US/Hawaii. Observers L. Denneau, A. Heinze, H. Weiland, J. Tonry, H. Flewelling, A. Fitzsimmons, D. Young, B. Stalder. Measurers L. Denneau, A. Heinze, J. Tonry. 0.5-m f/2.0 Schmidt + CCD. Orbital elements: N00hurv Perihelion 2021 Mar 15.262550 +/- 0.0110419 TT = 6:18:04 (JD 2459288.762550) Epoch 2021 Feb 5.0 TT = JDT 2459250.5 Earth MOID: 0.5802 Ju: 0.7505 M 359.95870171 +/- 0.0018897 (J2000 ecliptic) AutoNEOCP n 0.00107933 +/- 4.98934e-5 Peri. 82.26457 +/- 0.0064877 a 94.1233296 +/- 2.90157 Node 188.34853 +/- 0.0019624 e 0.9865225 +/- 0.000414811 Incl. 151.52434 +/- 0.0003897 P 913.16 H 18.3 G 0.15 U 6.1 q 1.26854674 +/- 5.53034e-5 Q 186.978112 +/- 6.19003 From 80 observations 2020 Dec. 26-2021 Feb. 5; mean residual 0".36
